Location: Ajisawe
(8.4333°N, 4.3833°E)
Time: 21:42:01
(UTC+00:00)

Vanguard 2 Rocket - Pass Details

Date: 25 April 2021
Orbit: 554 x 3326 km, 32.9° (Epoch: 16 May)

Event Time Altitude Azimuth Distance (km) Brightness Sun altitude
Rises 07:16:01 0° 211° (SSW) 3,616 9.6 25.1°
Reaches altitude 10° 07:18:23 10° 201° (SSW) 2,932 9.3 25.6°
Maximum altitude 07:25:08 37° 135° (SE) 2,227 9.6 27.3°
Drops below altitude 10° 07:36:20 10° 74° (ENE) 4,884 12.2 30.0°
Sets 07:41:34 0° 67° (ENE) 6,347 12.3 31.3°
